User: anonymous   Login
Location: Unspecified
(0.0000°N, 0.0000°E)
Time: 09:13:09
(UTC+00:00)
Language:

Optus B1 - Orbit

View from above orbital plane
View from above orbital plane
View from above satellite
View from above satellite

Ground track
Ground track

The orbit data is extracted from the following two-line orbital elements,

1 22087U 92054A   16241.91168025 +.00000054 +00000-0 +00000-0 0  9994
2 22087 008.2529 048.2690 0008128 068.9157 251.5991 00.99201783099190
Epoch (UTC): 28 August 2016 21:52:49
Eccentricity: 0.0008128
inclination: 8.2529°
perigee height: 36054 km
apogee height: 36123 km
right ascension of ascending node: 48.2690°
argument of perigee: 68.9157°
revolutions per day: 0.99201783
mean anomaly at epoch: 251.5991°
orbit number at epoch: 9919

The dashed part of the orbit path shows where the satellite is in the earth's shadow,  

DLR